Bookmark and Share
Track history (hours):
 

Festivo

Last reported at 2014-Apr-15 07:31 UTC. Time now 2014-Apr-17 12:42 UTC.
Position N 35°54' W 005°19'.

Length 136 m; draft 3.5 m.

Type: Cargo ship. MMSI: 225410000.

NotesDate/timePositionNaut miles runAvg speedWind from/ knotsBaromVisibWave heightAir tempDewpointWater temp
2014-Apr-15 07:31N 35°54' W 005°19'0 0.0
2014-Apr-15 06:31N 35°54' W 005°19'0 0.0
2014-Apr-15 05:31N 35°54' W 005°19'1 0.4
2014-Apr-15 03:34N 35°54' W 005°19'19191923.7
2014-Apr-15 02:34N 03°55' W 005°14'19261925.4
2014-Apr-15 01:34N 36°01' W 005°08'  
2014-Apr-12 16:33N 35°54' W 005°10'8 7.9
2014-Apr-12 15:33N 35°54' W 005°19'0 0.0
2014-Apr-12 14:33N 35°54' W 005°19'0 0.0
2014-Apr-12 13:33N 35°54' W 005°19'0 0.0
2014-Apr-12 12:33N 35°54' W 005°19'0 0.0
2014-Apr-12 11:33N 35°54' W 005°19'0 0.0
2014-Apr-12 10:33N 35°54' W 005°19'0 0.0
2014-Apr-12 09:33N 35°54' W 005°19'0 0.0
2014-Apr-12 08:33N 35°54' W 005°19'0 0.0
2014-Apr-12 07:33N 35°54' W 005°19'0 0.0
2014-Apr-12 06:33N 35°54' W 005°19'0 0.0
2014-Apr-12 05:33N 35°54' W 005°19'6 6.2
2014-Apr-12 04:34N 35°58' W 005°14'10 0.2
2014-Apr-10 10:33N 36°05' W 005°05'1110.9
2014-Apr-10 09:34N 35°57' W 005°15'5 5.0
2014-Apr-10 08:33N 35°54' W 005°19'0 0.0
2014-Apr-10 07:33N 35°54' W 005°19'0 0.0
2014-Apr-10 06:33N 35°54' W 005°19'0 0.0
2014-Apr-10 05:33N 35°54' W 005°19'1 0.7
2014-Apr-10 04:34N 35°54' W 005°19'8 8.2
2014-Apr-10 03:34N 35°60' W 005°12'  
2014-Apr-05 18:32N 35°53' W 005°00'1111.6
2014-Apr-05 17:33N 35°54' W 005°14'5 4.5
2014-Apr-05 16:33N 35°54' W 005°19'0 0.0
2014-Apr-05 15:33N 35°54' W 005°19'0 0.0
2014-Apr-05 14:33N 35°54' W 005°19'0 0.0
2014-Apr-05 13:33N 35°54' W 005°19'0 0.0
2014-Apr-05 12:33N 35°54' W 005°19'0 0.0
2014-Apr-05 11:33N 35°54' W 005°19'0 0.0
2014-Apr-05 10:33N 35°54' W 005°19'0 0.0
2014-Apr-05 09:33N 35°54' W 005°19'4 3.9
2014-Apr-05 08:34N 35°57' W 005°16'8 8.0
2014-Apr-05 07:33N 36°03' W 005°10'  

Dump ship's entire track history

sailing weather and tide predictions

Festivo — EAEQ — position and weather